Location: Coopersdale
(40.3556°N, 78.9372°W)
Time: 07:41:38
(UTC+00:00)

Tiros 1 despin weight - Pass Details

Date: 26 June 2021
Orbit: 593 x 642 km, 48.2° (Epoch: 04 August)

Event Time Altitude Azimuth Distance (km) Brightness Sun altitude
Exits shadow 08:45:04 13° 245° (WSW) 1,757 ? -10.3°
Maximum altitude 08:49:02 78° 331° (NNW) 612 ? -9.7°
Drops below altitude 10° 08:53:28 10° 58° (ENE) 1,927 ? -9.1°
Sets 08:55:45 0° 60° (ENE) 2,828 ? -8.7°
